Location: ??????
(55.6130°N, 37.7882°E)
Time: 22:44:14
(UTC+00:00)

Envisat - Pass Details

Date: 23 June 2024
Orbit: 762 x 764 km, 98.3° (Epoch: 21 July)

Event Time Altitude Azimuth Distance (km) Brightness Sun altitude
Rises 23:41:27 0° 23° (NNE) 3,242 8.7 -6.3°
Reaches altitude 10° 23:44:17 10° 38° (NE) 2,311 7.3 -6.1°
Maximum altitude 23:48:12 22° 89° (E) 1,621 5.1 -5.8°
Drops below altitude 10° 23:52:07 10° 140° (SE) 2,297 5.3 -5.5°
Sets 23:54:55 0° 155° (SSE) 3,217 5.9 -5.3°
